Regional Weather Roundup
Issued by NWS

Home | Current Version | Previous Version | Text Only | Print | Product List | Glossary On
Versions: 1 2 3 4 5 6 7 8 9 10 11 12 13 14 15 16 17 18 19 20 21 22 23 24 25 26 27 28 29 30 31 32 33 34 35 36 37 38 39 40 41 42 43 44 45 46 47 48 49 50
000
ASUS44 KFWD 201010
RWRTX
NORTH TEXAS HOURLY WEATHER ROUNDUP
NATIONAL WEATHER SERVICE FORT WORTH TX
500 AM CDT MON OCT 20 2014

NOTE: "FAIR" INDICATES FEW OR NO CLOUDS BELOW 12,000 FEET WITH NO
SIGNIFICANT WEATHER AND/OR OBSTRUCTIONS TO VISIBILITY.

TXZ118-119-201100-
DALLAS/FORT WORTH METROPLEX

CITY           SKY/WX    TMP DP  RH WIND       PRES   REMARKS
DFW AIRPORT    MOCLDY    60  54  80 CALM      30.05R
DALLAS LOVE    MOCLDY    61  53  75 CALM      30.05S
FTW MEACHAM    MOCLDY    63  56  78 CALM      30.04S
DAL-EXECUTIVE  PTCLDY    60  54  80 CALM      30.04S
FTW-ALLIANCE   PTCLDY    56  54  93 CALM      30.05S
FTW-NAS-JRB    MOCLDY    66  55  67 CALM      30.09S
FTW-SPINKS     MOCLDY    58  56  92 SW3       30.07R
ARLINGTON      PTCLDY    57  53  86 CALM      30.05R
GRAND PRAIRIE  PTCLDY    62  56  82 CALM      30.06S
ADDISON        PTCLDY    60  55  83 SE3       30.07S
MESQUITE       PTCLDY    54  51  90 CALM      30.05S
LANCASTER      PTCLDY    55  51  86 CALM      30.06R
$$

TXZ091>094-102>105-117-120-121-131>134-201100-
NORTH CENTRAL TEXAS

CITY           SKY/WX    TMP DP  RH WIND       PRES   REMARKS
SHRMAN/DENISON CLEAR     56  52  88 CALM      30.08R
GAINESVILLE    CLEAR     54  52  93 MISG      30.08S
BOWIE          CLEAR     56  56  97 SE3       30.05S FOG
BRIDGEPORT     PTCLDY    55  55 100 CALM      30.07S
DECATUR        CLEAR     60  56  86 CALM      30.06S
DENTON         CLEAR     55  53  93 CALM      30.05S
MCKINNEY       CLEAR     54  51  90 CALM      30.05S
GREENVILLE     CLEAR     50  48  93 CALM      30.05F
ROCKWALL       PTCLDY    56  52  85 CALM      30.04S
TERRELL        PTCLDY    55  52  89 CALM      30.06S
WAXAHACHIE     PTCLDY    57  56  99 CALM      30.06R
CLEBURNE       MOCLDY    61  59  94 CALM      30.07S
GRANBURY       MOCLDY    61  57  88 CALM      30.05F
$$

TXZ083>090-098>101-113>116-127>130-139>142-154-155-201100-
WESTERN NORTH TEXAS

CITY           SKY/WX    TMP DP  RH WIND       PRES   REMARKS
WICHITA FALLS  CLEAR     57  55  93 S7        30.03F
WF-KICKAPOO    CLEAR     58  56  91 SW5       30.05F
VERNON         CLEAR     59  55  88 SE3       30.05S
ABILENE        MOCLDY    63  59  87 S6        30.05S
ABILENE-DYESS  MOCLDY    62  58  88 SE2       30.04S
BRECKENRIDGE   PTCLDY    63  61  93 S6        30.04F FOG
GRAHAM         CLEAR     59  58  96 CALM      30.03F
MINERAL WELLS  PTCLDY    60  56  86 CALM      30.04S
STEPHENVILLE   PTCLDY    59  56  92 CALM      30.08F
COMANCHE       CLEAR     59  59 100 CALM      30.06S FOG
BROWNWOOD      MOCLDY    57  57 100 CALM      30.06S FOG
COLEMAN        CLEAR     59  59 100 CALM      30.06R FOG
BRADY          CLEAR     59  57  94 SE3       30.04S
$$

TXZ143>147-156>162-174-175-201100-
CENTRAL TEXAS

CITY           SKY/WX    TMP DP  RH WIND       PRES   REMARKS
WACO           CLEAR     58  56  93 CALM      30.05S
WACO-MCGREGOR  CLEAR     57  52  82 CALM      30.06S
HILLSBORO      PTCLDY    60  55  81 CALM      30.05S
CORSICANA      PTCLDY    60  54  80 CALM      30.05S
MEXIA          CLEAR     58  56  90 CALM      30.04S
HEARNE         CLEAR     58  56  94 CALM      30.05R
CAMERON        CLEAR     59  58  97 CALM      30.04S FOG
TEMPLE         CLEAR     59  52  77 CALM      30.04S
KILLEEN        CLOUDY    63  59  88 CALM      30.05R
KILLEEN-SKYLRK MOCLDY    61  54  77 CALM      30.04R
FORT HOOD      CLOUDY    65  61  87 CALM      30.05R
GATESVILLE     MOCLDY    57  57 100 CALM      30.07F
HAMILTON       FOG       59  59 100 SE5       30.06F VSB 3/4
LAMPASAS       PTCLDY    60  59  96 CALM      30.04S
$$

TXZ095>097-106>112-122>126-135>138-148>153-164>167-201100-
EAST TEXAS

CITY           SKY/WX    TMP DP  RH WIND       PRES   REMARKS
PARIS          CLEAR     52  43  71 E5        30.08R
SULPHUR SPRNGS CLEAR     51  50  96 CALM      30.08S
MOUNT PLEASANT CLEAR     48  47  99 CALM      30.08S
MINEOLA        CLEAR     52  50  93 CALM      30.06S
TYLER          PTCLDY    56  51  84 CALM      30.05S
LONGVIEW       CLEAR     52  50  93 CALM      30.05S
MARSHALL       CLEAR     53  51  93 CALM      30.08R
ATHENS         PTCLDY    54  52  94 CALM      30.04S
PALESTINE      CLEAR     58  54  88 CALM      30.05S
JACKSONVILLE   CLEAR     58  51  79 CALM      30.06S
HENDERSON      CLEAR     51  51  98 CALM      30.06S
NACOGDOCHES    CLEAR     48  46  93 CALM      30.05S
LUFKIN         CLEAR     58  53  84 E3        30.04S
$$

SUPPLEMENTAL OBSERVATIONS (CENTRAL)

CITY           SKY/WX    TMP DP  RH WIND       PRES   REMARKS
PAT MAYSE LAKE   N/A     52  48  87 CALM        N/A
MCGREGOR         N/A     59  55  88 CALM        N/A
TEMPLE           N/A     63  59  88 NE3         N/A
$$

SUPPLEMENTAL OBSERVATIONS (WEST)

CITY           SKY/WX    TMP DP  RH WIND       PRES   REMARKS
MILLERS CREEK    N/A     61  54  77 S3          N/A
GRANBURY         N/A     61  57  88 E1          N/A
HAMBY            N/A     63  57  82 S3          N/A
IVIE RESERVOIR   N/A     61  55  82 E3          N/A
COLORADO BEND    N/A     57  54  88 SE2         N/A
$$

SUPPLEMENTAL OBSERVATIONS (EAST)

CITY           SKY/WX    TMP DP  RH WIND       PRES   REMARKS
CLARKSVILLE      N/A     52  46  82 E1          N/A
TEXARKANA        N/A     45  43  93 CALM        N/A
LINDEN           N/A     48  45  87 CALM        N/A
GILMER           N/A     50  46  87 CALM        N/A
HENDERSON        N/A     52  48  87 N2          N/A
N SABINE NF      N/A     48  45  87 MISG        N/A
$$

SUPPLEMENTAL OBSERVATIONS ARE A COLLECTION OF AUTOMATED INSTRUMENTS
THAT ARE MAINTAINED BY A VARIETY OF FEDERAL AND STATE AGENCIES.
CERTAIN ELEMENTS...SUCH AS HUMIDITY VALUES AND SUSTAINED WIND
SPEEDS...MAY BE APPROXIMATED.




USA.gov is the U.S. government's official web portal to all federal, state and local government web resources and services.